| time (UTC) | temp F | wind direction | speed MPH | gust MPH | rain 1hr in | rain 24hr in | rain mn in | humidity % | barometer mb |
| 20260506123519 | 52 | 0.0 | 0.0 | 0.00 | 0.00 | 0.00 | 85 | 1008.4 | |
| 20260506123026 | 52 | 0.0 | 0.0 | 0.00 | 0.00 | 0.00 | 84 | 1008.3 | |
| 20260506122052 | 52 | 0.0 | 0.0 | 0.00 | 0.00 | 0.00 | 84 | 1008.2 | |
| 20260506121542 | 52 | 0.0 | 0.0 | 0.00 | 0.00 | 0.00 | 84 | 1008.2 | |
| 20260506121028 | 52 | 0.0 | 0.0 | 0.00 | 0.00 | 0.00 | 84 | 1008.2 | |
| 20260506120540 | 52 | 0.0 | 0.0 | 0.00 | 0.00 | 0.00 | 83 | 1008.2 | |
| 20260506120024 | 52 | 0.0 | 0.0 | 0.00 | 0.00 | 0.00 | 83 | 1008.1 | |
| 20260506115536 | 52 | 0.0 | 0.0 | 0.00 | 0.00 | 0.00 | 83 | 1008.1 | |
| 20260506115031 | 52 | 0.0 | 0.0 | 0.00 | 0.00 | 0.00 | 83 | 1008.1 | |
| 20260506114524 | 51 | 0.0 | 0.0 | 0.00 | 0.00 | 0.00 | 82 | 1008.0 | |
| 20260506114031 | 51 | 0.0 | 0.0 | 0.00 | 0.00 | 0.00 | 82 | 1008.0 | |
| 20260506113523 | 51 | 0.0 | 0.0 | 0.00 | 0.00 | 0.00 | 81 | 1008.1 | |
| 20260506113017 | 51 | 0.0 | 0.0 | 0.00 | 0.00 | 0.00 | 80 | 1008.0 | |
| 20260506112529 | 51 | 0.0 | 0.0 | 0.00 | 0.00 | 0.00 | 79 | 1008.0 | |
| 20260506112036 | 51 | 0.0 | 0.0 | 0.00 | 0.00 | 0.00 | 79 | 1008.0 | |
| 20260506111528 | 51 | 0.0 | 0.0 | 0.00 | 0.00 | 0.00 | 78 | 1008.0 | |
| 20260506111033 | 51 | 0.0 | 0.0 | 0.00 | 0.00 | 0.00 | 77 | 1007.9 | |
| 20260506110525 | 51 | 0.0 | 0.0 | 0.00 | 0.00 | 0.00 | 77 | 1007.9 | |
| 20260506110036 | 51 | 0.0 | 0.0 | 0.00 | 0.00 | 0.00 | 75 | 1007.9 | |
| 20260506105528 | 51 | 0.0 | 0.0 | 0.00 | 0.00 | 0.00 | 76 | 1007.9 | |
| 20260506105023 | 52 | 0.0 | 0.0 | 0.00 | 0.00 | 0.00 | 78 | 1008.0 | |
| 20260506104556 | 51 | 0.0 | 0.0 | 0.00 | 0.00 | 0.00 | 79 | 1008.0 | |
| 20260506104050 | 51 | 0.0 | 0.0 | 0.00 | 0.00 | 0.00 | 78 | 1008.0 | |
| 20260506103521 | 51 | 0.0 | 0.0 | 0.00 | 0.00 | 0.00 | 79 | 1008.0 | |
| 20260506103028 | 51 | 0.0 | 0.0 | 0.00 | 0.00 | 0.00 | 78 | 1007.9 | |
| 20260506102521 | 51 | 0.0 | 0.0 | 0.00 | 0.00 | 0.00 | 78 | 1007.9 | |
| 20260506102027 | 51 | 0.0 | 0.0 | 0.00 | 0.00 | 0.00 | 78 | 1007.9 | |
| 20260506101519 | 51 | 0.0 | 0.0 | 0.00 | 0.00 | 0.00 | 78 | 1007.9 | |
| 20260506101025 | 51 | 0.0 | 0.0 | 0.00 | 0.00 | 0.00 | 78 | 1007.9 | |
| 20260506100521 | 51 | 0.0 | 0.0 | 0.00 | 0.00 | 0.00 | 77 | 1007.9 | |
| 20260506100026 | 51 | 0.0 | 0.0 | 0.00 | 0.00 | 0.00 | 77 | 1007.9 | |
| 20260506095518 | 51 | 0.0 | 0.0 | 0.00 | 0.00 | 0.00 | 77 | 1007.9 | |
| 20260506095034 | 51 | 0.0 | 0.0 | 0.00 | 0.00 | 0.00 | 76 | 1007.8 | |
| 20260506094526 | 51 | 0.0 | 0.0 | 0.00 | 0.00 | 0.00 | 76 | 1007.8 | |
| 20260506094054 | 51 | 0.0 | 0.0 | 0.00 | 0.00 | 0.00 | 75 | 1007.8 | |
| 20260506093524 | 51 | 0.0 | 0.0 | 0.00 | 0.00 | 0.00 | 75 | 1007.8 | |
| 20260506093019 | 51 | 0.0 | 0.0 | 0.00 | 0.00 | 0.00 | 76 | 1007.8 | |
| 20260506092531 | 51 | 0.0 | 0.0 | 0.00 | 0.00 | 0.00 | 77 | 1007.8 | |
| 20260506092018 | 51 | 0.0 | 0.0 | 0.00 | 0.00 | 0.00 | 76 | 1007.8 | |
| 20260506091533 | 51 | 0.0 | 0.0 | 0.00 | 0.00 | 0.00 | 77 | 1007.8 | |
| 20260506091040 | 51 | 0.0 | 0.0 | 0.00 | 0.00 | 0.00 | 76 | 1007.8 | |
| 20260506090531 | 51 | 0.0 | 0.0 | 0.00 | 0.00 | 0.00 | 75 | 1007.7 | |
| 20260506090058 | 51 | 0.0 | 0.0 | 0.00 | 0.00 | 0.00 | 75 | 1007.8 | |
| 20260506085528 | 51 | 0.0 | 0.0 | 0.00 | 0.00 | 0.00 | 75 | 1007.8 | |
| 20260506085024 | 50 | 0.0 | 0.0 | 0.00 | 0.00 | 0.00 | 75 | 1007.7 | |
| 20260506084516 | 50 | 0.0 | 0.0 | 0.00 | 0.00 | 0.00 | 75 | 1007.6 | |
| 20260506084043 | 50 | 0.0 | 0.0 | 0.00 | 0.00 | 0.00 | 74 | 1007.5 | |
| 20260506083534 | 50 | 0.0 | 0.0 | 0.00 | 0.00 | 0.00 | 74 | 1007.6 | |
| 20260506083020 | 50 | 0.0 | 0.0 | 0.00 | 0.00 | 0.00 | 74 | 1007.5 | |
| 20260506082532 | 50 | 0.0 | 0.0 | 0.00 | 0.00 | 0.00 | 75 | 1007.3 | |
| 20260506082023 | 50 | 0.0 | 0.0 | 0.00 | 0.00 | 0.00 | 75 | 1007.3 | |
| 20260506081535 | 49 | 0.0 | 0.0 | 0.00 | 0.00 | 0.00 | 74 | 1007.2 | |
| 20260506080520 | 49 | 0.0 | 0.0 | 0.00 | 0.00 | 0.00 | 74 | 1007.1 | |
| 20260506073103 | 49 | 0.0 | 0.0 | 0.00 | 0.00 | 0.00 | 77 | 1007.0 | |
| 20260506072527 | 49 | 0.0 | 0.0 | 0.00 | 0.00 | 0.00 | 77 | 1007.0 | |
| 20260506072055 | 49 | 0.0 | 0.0 | 0.00 | 0.00 | 0.00 | 77 | 1007.1 | |
| 20260506071526 | 49 | 0.0 | 0.0 | 0.00 | 0.00 | 0.00 | 77 | 1007.1 | |
| 20260506071017 | 49 | 0.0 | 0.0 | 0.00 | 0.00 | 0.00 | 76 | 1007.1 | |
| 20260506070529 | 49 | 0.0 | 0.0 | 0.00 | 0.00 | 0.00 | 76 | 1007.1 | |
| 20260506062056 | 49 | 0.0 | 0.0 | 0.00 | 0.00 | 0.00 | 76 | 1007.1 | |
| 20260506061526 | 49 | 0.0 | 0.0 | 0.00 | 0.00 | 0.00 | 76 | 1007.1 | |
| 20260506060519 | 49 | 0.0 | 0.0 | 0.00 | 0.00 | 0.00 | 76 | 1007.1 | |
| 20260506051022 | 50 | 0.0 | 0.0 | 0.00 | 0.00 | 0.00 | 77 | 1007.1 | |
| 20260506050534 | 50 | 0.0 | 0.0 | 0.00 | 0.00 | 0.00 | 77 | 1007.1 | |
| 20260506045038 | 50 | 0.0 | 0.0 | 0.00 | 0.00 | 0.00 | 77 | 1007.2 | |
| 20260506044530 | 50 | 0.0 | 0.0 | 0.00 | 0.00 | 0.00 | 77 | 1007.1 | |
| 20260506044017 | 50 | 0.0 | 0.0 | 0.00 | 0.00 | 0.00 | 77 | 1007.1 | |
| 20260506043549 | 50 | 0.0 | 0.0 | 0.00 | 0.00 | 0.00 | 77 | 1007.2 | |
| 20260506043035 | 50 | 0.0 | 0.0 | 0.00 | 0.00 | 0.00 | 76 | 1007.2 | |
| 20260506042547 | 50 | 0.0 | 0.0 | 0.00 | 0.00 | 0.00 | 76 | 1007.1 | |
| 20260506042021 | 50 | 0.0 | 0.0 | 0.00 | 0.00 | 0.00 | 76 | 1007.1 | |
| 20260506041534 | 50 | 0.0 | 0.0 | 0.00 | 0.00 | 0.00 | 76 | 1007.2 | |
| 20260506041028 | 50 | 0.0 | 0.0 | 0.00 | 0.00 | 0.00 | 76 | 1007.2 | |
| 20260506040520 | 50 | 0.0 | 0.0 | 0.00 | 0.00 | 0.00 | 75 | 1007.2 | |
| 20260506040035 | 50 | 0.0 | 0.0 | 0.00 | 0.00 | 0.00 | 74 | 1007.2 | |
| 20260506035527 | 50 | 0.0 | 0.0 | 0.00 | 0.00 | 0.00 | 74 | 1007.1 | |
| 20260506035033 | 50 | 0.0 | 0.0 | 0.00 | 0.00 | 0.00 | 73 | 1007.1 | |
| 20260506034525 | 50 | 0.0 | 0.0 | 0.00 | 0.00 | 0.00 | 73 | 1007.1 | |
| 20260506034031 | 50 | 0.0 | 0.0 | 0.00 | 0.00 | 0.00 | 73 | 1007.1 | |
| 20260506033526 | 50 | 0.0 | 0.0 | 0.00 | 0.00 | 0.00 | 73 | 1007.1 | |
| 20260506032533 | 50 | 0.0 | 0.0 | 0.00 | 0.00 | 0.00 | 74 | 1007.2 | |
| 20260506031526 | 50 | 0.0 | 0.0 | 0.00 | 0.00 | 0.00 | 74 | 1007.3 | |
| 20260506031022 | 50 | 0.0 | 0.0 | 0.00 | 0.00 | 0.00 | 74 | 1007.3 | |
| 20260506030534 | 50 | 0.0 | 0.0 | 0.00 | 0.00 | 0.00 | 74 | 1007.4 | |
| 20260506030020 | 50 | 0.0 | 0.0 | 0.00 | 0.00 | 0.00 | 74 | 1007.4 | |
| 20260506025533 | 50 | 0.0 | 0.0 | 0.00 | 0.00 | 0.00 | 74 | 1007.4 | |
| 20260506025019 | 50 | 0.0 | 0.0 | 0.00 | 0.00 | 0.00 | 75 | 1007.4 | |
| 20260506024531 | 50 | 0.0 | 0.0 | 0.00 | 0.00 | 0.00 | 75 | 1007.5 | |
| 20260506024018 | 50 | 0.0 | 0.0 | 0.00 | 0.00 | 0.00 | 75 | 1007.5 | |
| 20260506023530 | 50 | 0.0 | 0.0 | 0.00 | 0.00 | 0.00 | 76 | 1007.5 | |
| 20260506023025 | 50 | 0.0 | 0.0 | 0.00 | 0.00 | 0.00 | 76 | 1007.6 | |
| 20260506022521 | 51 | 0.0 | 0.0 | 0.00 | 0.00 | 0.00 | 76 | 1007.5 | |
| 20260506022029 | 51 | 0.0 | 0.0 | 0.00 | 0.00 | 0.00 | 76 | 1007.6 | |
| 20260506021525 | 51 | 0.0 | 0.0 | 0.00 | 0.00 | 0.00 | 76 | 1007.6 | |
| 20260506021032 | 51 | 0.0 | 0.0 | 0.00 | 0.00 | 0.00 | 76 | 1007.7 | |
| 20260506020544 | 51 | 0.0 | 0.0 | 0.00 | 0.00 | 0.00 | 77 | 1007.7 | |
| 20260506020029 | 51 | 0.0 | 0.0 | 0.00 | 0.00 | 0.00 | 76 | 1007.7 | |
| 20260506015521 | 51 | 0.0 | 0.0 | 0.00 | 0.00 | 0.00 | 77 | 1007.8 | |
| 20260506015048 | 51 | 0.0 | 0.0 | 0.00 | 0.00 | 0.00 | 77 | 1007.8 | |
| 20260506014519 | 51 | 0.0 | 0.0 | 0.00 | 0.00 | 0.00 | 77 | 1007.9 | |
| 20260506014031 | 51 | 0.0 | 0.0 | 0.00 | 0.00 | 0.00 | 77 | 1007.8 | |
| 20260506013543 | 51 | 0.0 | 0.0 | 0.00 | 0.00 | 0.00 | 77 | 1007.9 | |
| 20260506013036 | 51 | 0.0 | 0.0 | 0.00 | 0.00 | 0.00 | 78 | 1007.9 | |
| 20260506012527 | 51 | 0.0 | 0.0 | 0.00 | 0.00 | 0.00 | 78 | 1007.9 | |
| 20260506012022 | 51 | 0.0 | 0.0 | 0.00 | 0.00 | 0.00 | 78 | 1007.9 | |
| 20260506011535 | 51 | 0.0 | 0.0 | 0.00 | 0.00 | 0.00 | 78 | 1007.9 | |
| 20260506011041 | 51 | 0.0 | 0.0 | 0.00 | 0.00 | 0.00 | 78 | 1007.9 | |
| 20260506010515 | 51 | 0.0 | 0.0 | 0.00 | 0.00 | 0.00 | 78 | 1007.9 | |
| 20260506010022 | 51 | 0.0 | 0.0 | 0.00 | 0.00 | 0.00 | 79 | 1007.9 | |
| 20260506005534 | 51 | 0.0 | 0.0 | 0.00 | 0.00 | 0.00 | 79 | 1008.0 | |
| 20260506005040 | 51 | 0.0 | 0.0 | 0.00 | 0.00 | 0.00 | 79 | 1008.0 | |
| 20260506004532 | 51 | 0.0 | 0.0 | 0.00 | 0.00 | 0.00 | 79 | 1008.0 | |
| 20260506003517 | 51 | 0.0 | 0.0 | 0.00 | 0.00 | 0.00 | 79 | 1008.0 | |
| 20260506003032 | 51 | 0.0 | 0.0 | 0.00 | 0.00 | 0.00 | 79 | 1008.1 | |
| 20260506002523 | 51 | 0.0 | 0.0 | 0.00 | 0.00 | 0.00 | 80 | 1008.2 | |
| 20260506002050 | 52 | 0.0 | 0.0 | 0.00 | 0.00 | 0.00 | 79 | 1008.2 | |
| 20260506001520 | 52 | 0.0 | 0.0 | 0.00 | 0.00 | 0.00 | 79 | 1008.3 | |
| 20260506001027 | 51 | 0.0 | 0.0 | 0.00 | 0.00 | 0.00 | 79 | 1008.3 | |
| 20260506000539 | 51 | 0.0 | 0.0 | 0.00 | 0.00 | 0.00 | 79 | 1008.3 | |
| 20260506000029 | 52 | 0.0 | 0.0 | 0.00 | 0.00 | 0.00 | 79 | 1008.3 | |
| 20260505235521 | 52 | 0.0 | 0.0 | 0.00 | 0.00 | 0.00 | 79 | 1008.3 | |
| 20260505235028 | 52 | 0.0 | 0.0 | 0.00 | 0.00 | 0.00 | 79 | 1008.3 | |
| 20260505234519 | 52 | 0.0 | 0.0 | 0.00 | 0.00 | 0.00 | 79 | 1008.3 | |
| 20260505234030 | 52 | 0.0 | 0.0 | 0.00 | 0.00 | 0.00 | 79 | 1008.3 | |
| 20260505233522 | 52 | 0.0 | 0.0 | 0.00 | 0.00 | 0.00 | 79 | 1008.4 | |
| 20260505233016 | 52 | 0.0 | 0.0 | 0.00 | 0.00 | 0.00 | 80 | 1008.4 | |
| 20260505232528 | 52 | 0.0 | 0.0 | 0.00 | 0.00 | 0.00 | 79 | 1008.5 | |
| 20260505232035 | 52 | 0.0 | 0.0 | 0.00 | 0.00 | 0.00 | 79 | 1008.4 | |
| 20260505231527 | 52 | 0.0 | 0.0 | 0.00 | 0.00 | 0.00 | 79 | 1008.5 | |
| 20260505231053 | 52 | 0.0 | 0.0 | 0.00 | 0.00 | 0.00 | 80 | 1008.5 | |
| 20260505230525 | 52 | 0.0 | 0.0 | 0.00 | 0.00 | 0.00 | 80 | 1008.6 | |
| 20260505230034 | 52 | 0.0 | 0.0 | 0.00 | 0.00 | 0.00 | 80 | 1008.6 | |
| 20260505225526 | 52 | 0.0 | 0.0 | 0.00 | 0.00 | 0.00 | 80 | 1008.6 | |
| 20260505225033 | 52 | 0.0 | 0.0 | 0.00 | 0.00 | 0.00 | 80 | 1008.5 | |
| 20260505224545 | 52 | 0.0 | 0.0 | 0.00 | 0.00 | 0.00 | 80 | 1008.6 | |
| 20260505224030 | 52 | 0.0 | 0.0 | 0.00 | 0.00 | 0.00 | 80 | 1008.6 | |
| 20260505223521 | 52 | 0.0 | 0.0 | 0.00 | 0.00 | 0.00 | 80 | 1008.6 | |
| 20260505223028 | 52 | 0.0 | 0.0 | 0.00 | 0.00 | 0.00 | 80 | 1008.5 | |
| 20260505222520 | 52 | 0.0 | 0.0 | 0.00 | 0.00 | 0.00 | 80 | 1008.5 | |
| 20260505222026 | 52 | 0.0 | 0.0 | 0.00 | 0.00 | 0.00 | 81 | 1008.5 | |
| 20260505221522 | 52 | 0.0 | 0.0 | 0.00 | 0.00 | 0.00 | 81 | 1008.5 | |
| 20260505221027 | 53 | 0.0 | 0.0 | 0.00 | 0.00 | 0.00 | 82 | 1008.6 | |
| 20260505220519 | 53 | 0.0 | 0.0 | 0.00 | 0.00 | 0.00 | 82 | 1008.6 | |
| 20260505220054 | 53 | 0.0 | 0.0 | 0.00 | 0.00 | 0.00 | 83 | 1008.7 | |
| 20260505215524 | 53 | 0.0 | 0.0 | 0.00 | 0.00 | 0.00 | 83 | 1008.8 | |
| 20260505215031 | 53 | 0.0 | 0.0 | 0.00 | 0.00 | 0.00 | 83 | 1008.8 | |
| 20260505214541 | 53 | 0.0 | 0.0 | 0.00 | 0.00 | 0.00 | 83 | 1008.8 | |
| 20260505214056 | 53 | 0.0 | 0.0 | 0.00 | 0.00 | 0.00 | 83 | 1008.8 | |
| 20260505213527 | 53 | 0.0 | 0.0 | 0.00 | 0.00 | 0.00 | 83 | 1008.9 | |
| 20260505213053 | 53 | 0.0 | 0.0 | 0.00 | 0.00 | 0.00 | 83 | 1009.0 | |
| 20260505212524 | 53 | 0.0 | 0.0 | 0.00 | 0.00 | 0.00 | 83 | 1009.0 | |
| 20260505212031 | 53 | 0.0 | 0.0 | 0.00 | 0.00 | 0.00 | 83 | 1009.0 | |
| 20260505211523 | 53 | 0.0 | 0.0 | 0.00 | 0.00 | 0.00 | 83 | 1009.0 | |
| 20260505211050 | 53 | 0.0 | 0.0 | 0.00 | 0.00 | 0.00 | 83 | 1009.0 | |
| 20260505205054 | 54 | 0.0 | 0.0 | 0.00 | 0.00 | 0.00 | 82 | 1009.0 | |
| 20260505204545 | 54 | 0.0 | 0.0 | 0.00 | 0.00 | 0.00 | 83 | 1009.0 | |
| 20260505204031 | 54 | 0.0 | 0.0 | 0.00 | 0.00 | 0.00 | 82 | 1009.0 | |
| 20260505203523 | 54 | 0.0 | 0.0 | 0.00 | 0.00 | 0.00 | 82 | 1009.1 | |
| 20260505203034 | 54 | 0.0 | 0.0 | 0.00 | 0.00 | 0.00 | 83 | 1009.2 | |
| 20260505202526 | 54 | 0.0 | 0.0 | 0.00 | 0.00 | 0.00 | 82 | 1009.1 | |
| 20260505202032 | 54 | 0.0 | 0.0 | 0.00 | 0.00 | 0.00 | 83 | 1009.0 | |
| 20260505201524 | 54 | 0.0 | 0.0 | 0.00 | 0.00 | 0.00 | 83 | 1009.0 | |
| 20260505201031 | 54 | 0.0 | 0.0 | 0.00 | 0.00 | 0.00 | 83 | 1009.0 | |
| 20260505200523 | 54 | 0.0 | 0.0 | 0.00 | 0.00 | 0.00 | 83 | 1009.0 | |
| 20260505200030 | 54 | 0.0 | 0.0 | 0.00 | 0.00 | 0.00 | 83 | 1009.0 | |
| 20260505195522 | 54 | 0.0 | 0.0 | 0.00 | 0.00 | 0.00 | 82 | 1008.9 | |
| 20260505195037 | 54 | 0.0 | 0.0 | 0.00 | 0.00 | 0.00 | 82 | 1008.8 | |
| 20260505194528 | 54 | 0.0 | 0.0 | 0.00 | 0.00 | 0.00 | 83 | 1008.9 | |
| 20260505194019 | 54 | 0.0 | 0.0 | 0.00 | 0.00 | 0.00 | 82 | 1008.9 | |
| 20260505193531 | 55 | 0.0 | 0.0 | 0.00 | 0.00 | 0.00 | 83 | 1008.9 | |
| 20260505193038 | 55 | 0.0 | 0.0 | 0.00 | 0.00 | 0.00 | 82 | 1008.8 | |
| 20260505192529 | 55 | 0.0 | 0.0 | 0.00 | 0.00 | 0.00 | 83 | 1008.7 | |
| 20260505192015 | 55 | 0.0 | 0.0 | 0.00 | 0.00 | 0.00 | 82 | 1008.7 | |
| 20260505191527 | 55 | 0.0 | 0.0 | 0.00 | 0.00 | 0.00 | 83 | 1008.6 | |
| 20260505191054 | 55 | 0.0 | 0.0 | 0.00 | 0.00 | 0.00 | 83 | 1008.6 | |
| 20260505190525 | 55 | 0.0 | 0.0 | 0.00 | 0.00 | 0.00 | 83 | 1008.6 | |
| 20260505190030 | 55 | 0.0 | 0.0 | 0.00 | 0.00 | 0.00 | 83 | 1008.6 | |
| 20260505185522 | 55 | 0.0 | 0.0 | 0.00 | 0.00 | 0.00 | 83 | 1008.6 | |
| 20260505184515 | 55 | 0.0 | 0.0 | 0.00 | 0.00 | 0.00 | 82 | 1008.6 | |
| 20260505184031 | 55 | 0.0 | 0.0 | 0.00 | 0.00 | 0.00 | 82 | 1008.7 | |
| 20260505183527 | 55 | 0.0 | 0.0 | 0.00 | 0.00 | 0.00 | 82 | 1008.7 | |
| 20260505183032 | 55 | 0.0 | 0.0 | 0.00 | 0.00 | 0.00 | 82 | 1008.7 | |
| 20260505182524 | 55 | 0.0 | 0.0 | 0.00 | 0.00 | 0.00 | 82 | 1008.6 | |
| 20260505182031 | 55 | 0.0 | 0.0 | 0.00 | 0.00 | 0.00 | 82 | 1008.6 | |
| 20260505181522 | 55 | 0.0 | 0.0 | 0.00 | 0.00 | 0.00 | 82 | 1008.6 | |
| 20260505181030 | 56 | 0.0 | 0.0 | 0.00 | 0.00 | 0.00 | 82 | 1008.6 | |
| 20260505180521 | 56 | 0.0 | 0.0 | 0.00 | 0.00 | 0.00 | 82 | 1008.6 | |
| 20260505175525 | 56 | 0.0 | 0.0 | 0.00 | 0.00 | 0.00 | 81 | 1008.7 | |
| 20260505175031 | 56 | 0.0 | 0.0 | 0.00 | 0.00 | 0.00 | 81 | 1008.7 | |
| 20260505174527 | 56 | 0.0 | 0.0 | 0.00 | 0.00 | 0.00 | 81 | 1008.7 | |
| 20260505174022 | 56 | 0.0 | 0.0 | 0.00 | 0.00 | 0.00 | 81 | 1008.8 | |
| 20260505173554 | 56 | 0.0 | 0.0 | 0.00 | 0.00 | 0.00 | 81 | 1008.8 | |
| 20260505173041 | 56 | 0.0 | 0.0 | 0.00 | 0.00 | 0.00 | 81 | 1008.9 | |
| 20260505172026 | 56 | 0.0 | 0.0 | 0.00 | 0.00 | 0.00 | 81 | 1008.8 | |
| 20260505171517 | 56 | 0.0 | 0.0 | 0.00 | 0.00 | 0.00 | 81 | 1008.8 | |
| 20260505171033 | 56 | 0.0 | 0.0 | 0.00 | 0.00 | 0.00 | 81 | 1008.8 | |
| 20260505170544 | 56 | 0.0 | 0.0 | 0.00 | 0.00 | 0.00 | 81 | 1008.8 | |
| 20260505170030 | 56 | 0.0 | 0.0 | 0.00 | 0.00 | 0.00 | 81 | 1008.8 | |
| 20260505165522 | 56 | 0.0 | 0.0 | 0.00 | 0.00 | 0.00 | 81 | 1008.7 | |
| 20260505165029 | 56 | 0.0 | 0.0 | 0.00 | 0.00 | 0.00 | 81 | 1008.7 | |
| 20260505164521 | 56 | 0.0 | 0.0 | 0.00 | 0.00 | 0.00 | 81 | 1008.7 | |
| 20260505164028 | 56 | 0.0 | 0.0 | 0.00 | 0.00 | 0.00 | 81 | 1008.7 | |
| 20260505163523 | 56 | 0.0 | 0.0 | 0.00 | 0.00 | 0.00 | 81 | 1008.8 | |
| 20260505163030 | 56 | 0.0 | 0.0 | 0.00 | 0.00 | 0.00 | 81 | 1008.8 | |
| 20260505162522 | 56 | 0.0 | 0.0 | 0.00 | 0.00 | 0.00 | 81 | 1008.8 | |
| 20260505162029 | 56 | 0.0 | 0.0 | 0.00 | 0.00 | 0.00 | 81 | 1008.9 | |
| 20260505161521 | 56 | 0.0 | 0.0 | 0.00 | 0.00 | 0.00 | 81 | 1008.9 | |
| 20260505161017 | 56 | 0.0 | 0.0 | 0.00 | 0.00 | 0.00 | 81 | 1008.9 | |
| 20260505160529 | 56 | 0.0 | 0.0 | 0.00 | 0.00 | 0.00 | 81 | 1009.0 | |
| 20260505153035 | 57 | 0.0 | 0.0 | 0.00 | 0.00 | 0.00 | 81 | 1009.2 | |
| 20260505152527 | 57 | 0.0 | 0.0 | 0.00 | 0.00 | 0.00 | 81 | 1009.3 | |
| 20260505152033 | 57 | 0.0 | 0.0 | 0.00 | 0.00 | 0.00 | 81 | 1009.4 | |
| 20260505151525 | 57 | 0.0 | 0.0 | 0.00 | 0.00 | 0.00 | 81 | 1009.5 | |
| 20260505151021 | 57 | 0.0 | 0.0 | 0.00 | 0.00 | 0.00 | 81 | 1009.4 | |
| 20260505150553 | 57 | 0.0 | 0.0 | 0.00 | 0.00 | 0.00 | 80 | 1009.4 | |
| 20260505140516 | 56 | 0.0 | 0.0 | 0.00 | 0.00 | 0.00 | 82 | 1009.7 | |
| 20260505124524 | 54 | 0.0 | 0.0 | 0.00 | 0.00 | 0.00 | 86 | 1010.2 | |
| 20260505124031 | 54 | 0.0 | 0.0 | 0.00 | 0.00 | 0.00 | 86 | 1010.2 |